PNF2643 GOBD-FZAA

Flight info

Callsign PNF2643
Flight time N/A
Altitude 39000
Route ERIDI UR979 AD/N0479F410 UR979 LV UG856 BZ
Aircraft B772/H-SDE2E3FGHIJ5LORVWXY/LB1D1

Departure

Time 2026-05-04 08:16
Airport Blaise Diagne International Airport (GOBD)

Arrival

Time N/A
Airport Ndjili International Airport (FZAA)
Time Latitude Longitude Altitude Speed Heading
2026-05-04 07:52 14.66765 -17.06876 306 ft 0 kts 360°
2026-05-04 08:02 14.66685 -17.06871 306 ft 3 kts 331°
2026-05-04 08:02 14.66669 -17.06859 305 ft 3 kts 309°
2026-05-04 08:02 14.66658 -17.06842 305 ft 3 kts 288°
2026-05-04 08:03 14.66654 -17.06821 306 ft 3 kts 266°
2026-05-04 08:03 14.66657 -17.06802 307 ft 3 kts 258°
2026-05-04 08:03 14.66661 -17.06783 306 ft 3 kts 258°
2026-05-04 08:03 14.66665 -17.06765 308 ft 3 kts 261°
2026-05-04 08:04 14.66666 -17.06759 308 ft 0 kts 269°
2026-05-04 08:08 14.66633 -17.07085 306 ft 11 kts 207°
2026-05-04 08:08 14.66560 -17.07089 309 ft 11 kts 180°
2026-05-04 08:10 14.65959 -17.07083 309 ft 11 kts 179°
2026-05-04 08:11 14.65884 -17.07083 309 ft 11 kts 179°
2026-05-04 08:11 14.65734 -17.07081 309 ft 11 kts 179°
2026-05-04 08:11 14.65659 -17.07080 307 ft 11 kts 179°
2026-05-04 08:12 14.65584 -17.07083 306 ft 11 kts 189°
2026-05-04 08:12 14.65530 -17.07128 308 ft 11 kts 258°
2026-05-04 08:12 14.65530 -17.07143 307 ft 0 kts 274°
2026-05-04 08:13 14.65531 -17.07162 307 ft 7 kts 271°
2026-05-04 08:13 14.65532 -17.07213 306 ft 7 kts 271°
2026-05-04 08:13 14.65553 -17.07255 306 ft 7 kts 328°
2026-05-04 08:14 14.65623 -17.07271 307 ft 28 kts 359°
2026-05-04 08:14 14.66079 -17.07275 304 ft 101 kts 359°
2026-05-04 08:14 14.66996 -17.07281 309 ft 163 kts 359°
2026-05-04 08:16 14.76491 -17.07374 2969 ft 257 kts
2026-05-04 08:16 14.78293 -17.07372 3413 ft 264 kts
2026-05-04 08:16 14.80043 -17.06763 4003 ft 264 kts 35°
2026-05-04 08:17 14.81346 -17.05490 4756 ft 259 kts 52°
2026-05-04 08:17 14.82286 -17.03895 5337 ft 262 kts 73°
2026-05-04 08:17 14.82446 -17.02030 5816 ft 265 kts 91°
2026-05-04 08:17 14.82396 -17.00096 6350 ft 271 kts 90°
2026-05-04 08:19 14.82263 -16.86355 10305 ft 290 kts 106°
2026-05-04 08:19 14.81490 -16.84364 10435 ft 308 kts 113°
2026-05-04 08:20 14.80566 -16.82270 10608 ft 329 kts 114°
2026-05-04 08:20 14.79605 -16.80107 11074 ft 340 kts 114°
2026-05-04 08:20 14.78607 -16.77847 11712 ft 347 kts 114°
2026-05-04 08:20 14.77611 -16.75575 12492 ft 351 kts 114°
2026-05-04 08:21 14.76597 -16.73249 13294 ft 355 kts 114°
2026-05-04 08:21 14.75589 -16.70929 14066 ft 359 kts 114°
2026-05-04 08:21 14.74552 -16.68537 14757 ft 365 kts 114°
2026-05-04 08:21 14.73511 -16.66132 15431 ft 372 kts 114°
2026-05-04 08:22 14.72442 -16.63660 16127 ft 378 kts 114°
2026-05-04 08:22 14.71355 -16.61144 16845 ft 385 kts 114°
2026-05-04 08:24 14.63309 -16.42562 21465 ft 423 kts 116°
2026-05-04 08:24 14.62078 -16.39794 22072 ft 425 kts 120°
2026-05-04 08:24 14.60347 -16.37344 22520 ft 427 kts 139°
2026-05-04 08:24 14.58084 -16.35360 22985 ft 430 kts 142°
2026-05-04 08:25 14.55757 -16.33368 23582 ft 436 kts 142°
2026-05-04 08:25 14.53424 -16.31352 24144 ft 438 kts 142°
2026-05-04 08:25 14.51083 -16.29310 24688 ft 441 kts 142°
2026-05-04 08:25 14.48750 -16.27257 25210 ft 445 kts 142°
2026-05-04 08:26 14.46387 -16.25167 25705 ft 448 kts 142°
2026-05-04 08:27 14.29449 -16.10118 28809 ft 471 kts 142°
2026-05-04 08:28 14.26949 -16.07900 29200 ft 474 kts 142°
2026-05-04 08:28 14.24436 -16.05672 29579 ft 477 kts 142°
2026-05-04 08:28 14.21908 -16.03430 29941 ft 479 kts 142°
2026-05-04 08:28 14.19391 -16.01199 30254 ft 482 kts 142°
2026-05-04 08:29 14.16850 -15.98947 30495 ft 485 kts 142°
2026-05-04 08:29 14.14257 -15.96650 30737 ft 489 kts 142°
2026-05-04 08:29 14.11692 -15.94379 30952 ft 492 kts 142°
2026-05-04 08:31 13.93214 -15.78034 32367 ft 506 kts 143°
2026-05-04 08:33 13.74487 -15.61504 34009 ft 510 kts 143°
2026-05-04 08:33 13.71787 -15.59124 34246 ft 510 kts 143°
2026-05-04 08:35 13.53050 -15.42627 36138 ft 503 kts 144°
2026-05-04 08:35 13.50410 -15.40306 36406 ft 503 kts 144°
2026-05-04 08:35 13.47754 -15.37971 36675 ft 502 kts 144°
2026-05-04 08:35 13.45102 -15.35641 36941 ft 501 kts 144°
2026-05-04 08:37 13.29299 -15.21767 38451 ft 496 kts 144°
2026-05-04 08:37 13.26687 -15.19476 38672 ft 495 kts 144°
2026-05-04 08:37 13.24069 -15.17180 38817 ft 496 kts 144°
2026-05-04 08:38 13.21421 -15.14860 38874 ft 498 kts 144°
2026-05-04 08:38 13.16669 -15.09675 38952 ft 508 kts 129°
2026-05-04 08:40 13.00914 -14.85580 38924 ft 507 kts 129°